Regional Weather Roundup
Issued by NWS

Home | Current Version | Previous Version | Graphics & Text | Print | Product List | Glossary On
Versions: 1 2 3 4 5 6 7 8 9 10 11 12 13 14 15 16 17 18 19 20 21 22 23 24 25 26 27
000
ASUS43 KDMX 241907
RWRIA

WEATHER ROUNDUP FOR IOWA
NATIONAL WEATHER SERVICE DES MOINES IA
200 PM CDT FRI OCT 24 2014

NOTE: "FAIR" INDICATES FEW OR NO CLOUDS BELOW 12,000 FEET WITH NO
SIGNIFICANT WEATHER AND/OR OBSTRUCTIONS TO VISIBILITY.

* - THESE STATIONS ARE NOT NWS STATIONS...THUS NOT UNDER NWS
QUALITY CONTROL.  THEY ALSO DO NOT REPORT WEATHER SUCH
AS PRECIPITATION OR FOG.

IAZ001>003-012>014-020>022-031>034-043>046-242000-
   NORTHWEST IOWA

CITY           SKY/WX    TMP DP  RH WIND       PRES   REMARKS
CARROLL *      SUNNY     72  59  64 SW8G14    29.89F
CHEROKEE *     PTSUNNY   68  55  64 W5        29.88F
DENISON *      SUNNY     70  59  68 SW9       29.88F
LE MARS *      SUNNY     72  52  49 CALM      29.90S
ORANGE CITY *  SUNNY     70  52  52 NW7       29.90S
SHELDON *      SUNNY     70  52  52 W8        29.88F
SIOUX CITY     PTSUNNY   74  49  41 NW5       29.89F
SPENCER        PTSUNNY   69  53  56 W9        29.88F
STORM LAKE *   SUNNY     70  54  56 W9        29.90F
$$

IAZ055>058-069>071-079>083-090>094-242000-
   SOUTHWEST IOWA

CITY           SKY/WX    TMP DP  RH WIND       PRES   REMARKS
ATLANTIC *     SUNNY     70  61  73 SW12G18   29.90F
AUDUBON *      SUNNY     70  59  68 SW9       29.91F
CLARINDA *     SUNNY     72  63  73 SW10G17   29.93F
COUNCIL BLFS * SUNNY     72  64  78 SW8       29.90F
CRESTON *      CLOUDY    64  63  94 S16G22    29.92F FOG
HARLAN  *      SUNNY     70  61  73 SW12      29.94F
LAMONI         CLOUDY    62  60  93 S14       29.94F FOG
RED OAK *      MOSUNNY   72  63  73 SW13      29.92S
SHENANDOAH *   SUNNY     73  63  68 SW10      29.92F
$$

IAZ047>049-059>061-072>074-084-242000-
   CENTRAL IOWA

CITY           SKY/WX    TMP DP  RH WIND       PRES   REMARKS
AMES           CLOUDY    64  60  87 S9        29.90F FOG
ANKENY *       CLOUDY    63  61  94 S12       29.91F
CHARITON *     CLOUDY    63  61  94 S13G20    29.93F FOG
DES MOINES     CLOUDY    64  60  87 S9        29.91F FOG
GRINNELL*      CLOUDY    61  59  94 S12       29.92F FOG
KNOXVILLE *    CLOUDY    63  59  88 S13G18    29.91F
MARSHALLTOWN   CLOUDY    60  59  96 S12       29.90F FOG
PELLA *        CLOUDY    64  61  88 S14       29.93F
PERRY *        PTSUNNY   70  61  73 SW13      29.89F
$$

IAZ004>006-015-016-023>025-035-036-242000-
   NORTH CENTRAL IOWA

CITY           SKY/WX    TMP DP  RH WIND       PRES   REMARKS
ALGONA *       SUNNY     68  57  68 SW10      29.87F
CLARION *      CLOUDY    66  61  82 W10       29.88F
ESTHERVILLE    PTSUNNY   67  53  61 W8        29.86F
FORT DODGE *   CLOUDY    68  59  73 SW9       29.89F
MASON CITY     CLOUDY    61  61 100 S8        29.89F FOG
FOREST CITY *  CLOUDY    64  61  88 SW6       29.87F
IOWA FALLS *   CLOUDY    61  59  94 SW7       29.91F FOG
$$

IAZ007>011-017>019-026>030-037>042-050>054-066-242000-
   NORTHEAST IOWA

CITY           SKY/WX    TMP DP  RH WIND       PRES   REMARKS
CEDAR RAPIDS   CLOUDY    58  57  97 S13       29.93F
CHARLES CITY * FOG       55  55 100 S9        29.91F VSB 1
CLINTON *      MOSUNNY   64  52  63 S12       30.00F
DECORAH *      CLOUDY    61  55  82 VRB7G14   29.91R
DUBUQUE        MOSUNNY   61  55  81 S14       29.97S
MONTICELLO *   PTSUNNY   61  57  88 S15       29.95F
OELWEIN *      FOG       55  55 100 S13G20    29.93F VSB 1/2
WATERLOO       LGT RAIN  56  56 100 S7        29.91F VSB 1/2
$$

IAZ064-065-067-068-078-242000-
   EAST CENTRAL IOWA

CITY           SKY/WX    TMP DP  RH WIND       PRES   REMARKS
DAVENPORT      SUNNY     67  50  54 S13       29.99F
IOWA CITY      CLOUDY    60  58  92 SE13      29.96F
MT. PLEASANT * PTSUNNY   64  55  72 SE10      29.98F
MUSCATINE *    MOSUNNY   68  55  64 S18       29.97F
QUAD CITIES    SUNNY     67  50  54 S10       29.97F
$$

IAZ062-063-075>077-085>089-095>099-242000-
   SOUTHEAST IOWA

CITY           SKY/WX    TMP DP  RH WIND       PRES   REMARKS
BURLINGTON     CLOUDY    61  58  90 S12       30.00F
FAIRFIELD *    MOSUNNY   64  57  77 S14G21    29.96F
FORT MADISON * CLOUDY    61  61 100 S7        30.01F
KEOKUK *       CLOUDY    57  57 100 S9G16     30.01F FOG
OSKALOOSA *    CLOUDY    61  59  94 S14       29.94F
CENTERVILLE *  PTSUNNY   64  63  94 S10       29.97F
OTTUMWA        CLOUDY    62  58  86 S10       29.94F
WASHINGTON *   CLOUDY    63  63 100 S16       29.95F
$$

ABBREVIATIONS USED IN REMARKS
   TC - TEMPERATURES IN CELSIUS
  WCI - WIND CHILL INDEX
   HX - HEAT INDEX
  VSB - VISIBILITY
$$




USA.gov is the U.S. government's official web portal to all federal, state and local government web resources and services.